Overview Statistics Trail Chart Weather Telemetry Raw packets
 

This is the latest recevied weather packets stored in our database for station/object IW2NIA-3. If no packets are shown the sender has not sent any weather packets the latest 10 day(s).

<< 34 35 36 37 38 39 >>
Time Temp. Humidity Pressure Rain* Wind** Luminosity Snow
1787851118 28.33° C 69% 1016.3 hPa 0 mm - - -
1787850227 28.33° C 68% 1016.3 hPa 0 mm - - -
1787849325 28.89° C 67% 1016.2 hPa 0 mm - - -
1787848420 28.89° C 65% 1016.3 hPa 0 mm - - -
1787847517 28.89° C 65% 1016.4 hPa 0 mm - - -
1787846611 29.44° C 63% 1016.4 hPa 0 mm - - -
1787845712 30° C 60% 1016.2 hPa 0 mm - - -
1787844809 30° C 62% 1016.3 hPa 0 mm - - -
1787843927 30° C 60% 1016.4 hPa 0 mm - - -
1787843023 30° C 58% 1016.2 hPa 0 mm - - -
1787842117 30° C 61% 1016.1 hPa 0 mm - - -
1787841213 30° C 59% 1016.3 hPa 0 mm - - -
1787840310 30° C 62% 1016.2 hPa 0 mm - - -
1787839425 30° C 57% 1016.1 hPa 0 mm - - -
1787838522 30° C 60% 1016.1 hPa 0 mm - - -
1787837612 30° C 59% 1016.3 hPa 0 mm - - -
1787836711 29.44° C 59% 1016.3 hPa 0 mm - - -
1787835813 29.44° C 61% 1016.4 hPa 0 mm - - -
1787834923 29.44° C 63% 1016.5 hPa 0 mm - - -
1787834015 29.44° C 64% 1016.5 hPa 0 mm - - -
1787833112 29.44° C 62% 1016.7 hPa 0 mm - - -
1787832222 28.89° C 66% 1016.9 hPa 0 mm - - -
1787831321 28.89° C 66% 1016.9 hPa 0 mm - - -
1787830411 28.33° C 67% 1016.9 hPa 0 mm - - -
1787829512 28.33° C 67% 1016.9 hPa 0 mm - - -

* Rain latest hour (hover to see other rain measurements)
** Current wind speed in m/s (hover to see current wind gust speed)